Date String (YYYY-MM-DD hh:mm:ss) UTC,Instrument flags,Ambient pressure (hPa),Sample flow (lpm),Bypass flow (lpm),Sample temperature (°C),Ambient temperature (°C),ASC tube jacket temperature (°C),LED temperature (°C),Box temperature (°C),Sample RH (%),Span deviation,Mass concentration (μg/m³),Mass concentration (μg/m³),Mass concentration (μg/m³)
DateTimeUTC,F1_M11,P_M11,Q1_M11,Q2_M11,T1_M11,T2_M11,T3_M11,T4_M11,T5_M11,U1_M11,ZSPAN_M11,X2_M11,X0_M11,X1_M11
2022-03-19 21:00:00,,0824.1,5.01,0.00,26.1,25.5,00.0,35.0,28.0,07.9,0000.0,0005.36,0014.13,0003.35
2022-03-19 21:01:00,,0824.1,4.99,0.00,26.2,25.5,00.0,35.0,28.0,07.4,0000.0,0005.36,0014.98,0003.36
2022-03-19 21:02:00,,0824.0,5.00,0.00,26.2,25.5,00.0,35.0,28.0,07.4,0000.0,0005.36,0014.97,0003.34
2022-03-19 21:03:00,,0824.1,5.01,0.00,26.2,25.5,00.0,35.0,28.0,07.8,0000.0,0005.34,0015.59,0003.34
2022-03-19 21:04:00,,0824.1,4.99,0.00,26.2,25.5,00.0,35.0,28.0,07.0,0000.0,0005.28,0015.12,0003.32
2022-03-19 21:05:00,,0824.1,5.01,0.00,26.2,25.5,00.0,35.0,28.0,07.0,0000.0,0005.25,0014.94,0003.31
2022-03-19 21:06:00,,0824.1,4.99,0.00,26.2,25.5,00.0,35.0,28.0,07.0,0000.0,0005.29,0014.47,0003.31
2022-03-19 21:07:00,,0824.1,5.00,0.00,26.2,25.5,00.0,35.0,28.0,07.1,0000.1,0005.28,0014.40,0003.32
2022-03-19 21:08:00,,0824.1,5.00,0.00,26.2,25.5,00.0,35.1,28.0,07.9,-000.5,0005.29,0014.35,0003.32
2022-03-19 21:09:00,,0824.1,4.99,0.00,26.2,25.6,00.0,35.1,28.0,07.3,-000.3,0005.30,0014.46,0003.33
2022-03-19 21:10:00,,0824.1,5.01,0.00,26.2,25.6,00.0,35.1,28.0,07.7,0000.5,0005.27,0014.48,0003.32
2022-03-19 21:11:00,,0824.0,4.98,0.00,26.2,25.6,00.0,35.1,28.1,07.8,0000.1,0005.14,0014.12,0003.31
2022-03-19 21:12:00,,0824.0,5.01,0.00,26.3,25.6,00.0,35.1,28.1,07.4,0000.0,0005.04,0012.66,0003.31
2022-03-19 21:13:00,,0824.0,4.99,0.00,26.3,25.6,00.0,35.1,28.1,07.4,0000.0,0005.02,0012.22,0003.30
2022-03-19 21:14:00,,0824.1,5.01,0.00,26.3,25.6,00.0,35.1,28.1,07.2,0000.0,0005.01,0012.13,0003.30
2022-03-19 21:15:00,,0824.1,4.99,0.00,26.3,25.6,00.0,35.1,28.1,07.3,0000.0,0005.03,0012.63,0003.30
2022-03-19 21:16:00,,0824.1,5.02,0.00,26.3,25.6,00.0,35.2,28.1,07.3,-000.2,0005.02,0013.47,0003.30
2022-03-19 21:17:00,,0824.0,4.99,0.00,26.3,25.6,00.0,35.2,28.1,07.1,0000.0,0005.02,0013.88,0003.29
2022-03-19 21:18:00,,0824.1,5.01,0.00,26.3,25.6,00.0,35.2,28.1,07.2,0000.0,0005.05,0014.40,0003.29
2022-03-19 21:19:00,,0824.1,4.99,0.00,26.3,25.6,00.0,35.2,28.1,07.2,0000.0,0005.09,0014.86,0003.30
2022-03-19 21:20:00,,0824.1,4.99,0.00,26.3,25.6,00.0,35.2,28.1,07.5,0000.0,0005.12,0014.90,0003.31
2022-03-19 21:21:00,,0824.1,5.02,0.00,26.3,25.6,00.0,35.2,28.1,06.6,0000.0,0005.21,0015.10,0003.33
2022-03-19 21:22:00,,0824.1,4.98,0.00,26.3,25.6,00.0,35.2,28.1,06.5,0000.0,0005.30,0015.53,0003.34
2022-03-19 21:23:00,,0824.1,5.01,0.00,26.3,25.6,00.0,35.2,28.2,06.7,0000.0,0005.34,0016.20,0003.34
2022-03-19 21:24:00,,0824.1,4.99,0.00,26.3,25.7,00.0,35.2,28.2,07.1,0000.0,0005.31,0015.86,0003.34
2022-03-19 21:25:00,,0824.1,4.99,0.00,26.4,25.7,00.0,35.2,28.2,06.7,0000.0,0005.34,0015.49,0003.35
2022-03-19 21:26:00,,0824.1,5.01,0.00,26.4,25.7,00.0,35.2,28.2,06.7,0000.0,0005.38,0015.19,0003.36
2022-03-19 21:27:00,,0824.1,4.99,0.00,26.4,25.7,00.0,35.2,28.2,06.6,0000.0,0005.41,0014.91,0003.37
2022-03-19 21:28:00,,0824.1,4.99,0.00,26.4,25.7,00.0,35.3,28.2,06.3,0000.0,0005.43,0014.87,0003.38
2022-03-19 21:29:00,,0824.0,5.01,0.00,26.4,25.7,00.0,35.3,28.2,06.5,0000.0,0005.45,0014.43,0003.39
2022-03-19 21:30:00,,0824.1,4.99,0.00,26.4,25.8,00.0,35.3,28.2,06.5,0000.0,0005.50,0014.41,0003.40
2022-03-19 21:31:00,,0824.1,5.01,0.00,26.5,25.8,00.0,35.3,28.3,06.3,0000.0,0005.47,0014.62,0003.41
2022-03-19 21:32:00,,0824.1,4.99,0.00,26.5,25.8,00.0,35.3,28.3,06.4,0000.0,0005.42,0014.39,0003.41
2022-03-19 21:33:00,,0824.1,5.01,0.00,26.5,25.9,00.0,35.3,28.4,06.4,0000.0,0005.45,0014.26,0003.43
2022-03-19 21:34:00,,0824.0,5.00,0.00,26.6,25.9,00.0,35.3,28.4,06.6,0000.0,0005.48,0013.78,0003.43
2022-03-19 21:35:00,,0824.0,4.99,0.00,26.6,26.0,00.0,35.4,28.4,06.7,0000.0,0005.52,0013.69,0003.44
2022-03-19 21:36:00,,0824.0,5.02,0.00,26.6,26.0,00.0,35.4,28.4,06.3,0000.0,0005.54,0013.84,0003.45
2022-03-19 21:37:00,,0824.0,4.99,0.00,26.6,26.0,00.0,35.4,28.5,06.3,0000.0,0005.48,0013.41,0003.46
2022-03-19 21:38:00,,0823.9,5.01,0.00,26.7,26.0,00.0,35.4,28.5,06.4,0000.0,0005.44,0012.80,0003.46
2022-03-19 21:39:00,,0823.9,5.00,0.00,26.7,26.1,00.0,35.5,28.6,06.4,0000.0,0005.41,0012.56,0003.46
2022-03-19 21:40:00,,0823.9,5.00,0.00,26.7,26.1,00.0,35.5,28.6,06.2,0000.0,0005.40,0012.45,0003.46
2022-03-19 21:41:00,,0823.9,4.99,0.00,26.7,26.1,00.0,35.5,28.6,06.5,0000.0,0005.35,0012.13,0003.45
2022-03-19 21:42:00,,0823.9,5.00,0.00,26.8,26.1,00.0,35.5,28.6,06.5,0000.0,0005.39,0011.83,0003.44
2022-03-19 21:43:00,,0823.9,5.00,0.00,26.8,26.2,00.0,35.5,28.7,06.5,0000.0,0005.36,0011.76,0003.43
2022-03-19 21:44:00,,0824.0,5.02,0.00,26.8,26.2,00.0,35.6,28.7,06.7,0000.0,0005.33,0012.48,0003.42
2022-03-19 21:45:00,,0823.9,5.00,0.00,26.8,26.2,00.0,35.6,28.7,06.6,0000.0,0005.33,0012.56,0003.42
2022-03-19 21:46:00,,0823.9,5.01,0.00,26.9,26.2,00.0,35.6,28.8,06.5,0000.0,0005.31,0012.46,0003.41
2022-03-19 21:47:00,,0823.9,5.00,0.00,26.9,26.3,00.0,35.6,28.7,06.4,0000.0,0005.32,0012.39,0003.42
2022-03-19 21:48:00,,0823.9,4.99,0.00,26.9,26.3,00.0,35.7,28.7,06.4,0000.0,0005.31,0012.52,0003.43
2022-03-19 21:49:00,,0823.9,4.99,0.00,26.9,26.3,00.0,35.7,28.8,06.9,0000.0,0005.35,0013.24,0003.43
2022-03-19 21:50:00,,0823.9,5.01,0.00,26.9,26.3,00.0,35.7,28.8,06.8,0000.0,0005.40,0013.98,0003.42
2022-03-19 21:51:00,,0823.9,5.00,0.00,26.9,26.3,00.0,35.7,28.7,07.0,0000.0,0005.38,0014.02,0003.42
2022-03-19 21:52:00,,0824.0,5.00,0.00,26.9,26.2,00.0,35.7,28.7,06.5,0000.0,0005.42,0014.23,0003.42
2022-03-19 21:53:00,,0823.9,4.99,0.00,26.9,26.2,00.0,35.7,28.7,06.4,0000.0,0005.46,0014.79,0003.42
2022-03-19 21:54:00,,0824.0,4.99,0.00,26.9,26.2,00.0,35.7,28.7,07.0,0000.0,0005.40,0014.71,0003.41
2022-03-19 21:55:00,,0824.0,5.01,0.00,26.9,26.2,00.0,35.7,28.7,07.2,0000.0,0005.39,0014.50,0003.41
2022-03-19 21:56:00,,0824.0,5.00,0.00,26.9,26.2,00.0,35.7,28.6,07.4,0000.0,0005.36,0014.03,0003.39
2022-03-19 21:57:00,,0824.0,5.00,0.00,26.9,26.2,00.0,35.7,28.6,07.4,0000.0,0005.41,0014.30,0003.39
2022-03-19 21:58:00,,0824.0,5.02,0.00,26.9,26.1,00.0,35.7,28.6,07.1,0000.0,0005.45,0014.47,0003.38
2022-03-19 21:59:00,,0824.0,4.99,0.00,26.8,26.1,00.0,35.8,28.6,07.0,0000.0,0005.50,0014.41,0003.35
